[[{"header":{"parameterUnit":"m.s-1","parameterCategory":1,"la1":30.2991,"la2":30.254,"lo1":-89.0895,"lo2":-89.0444,"dy":0.0017,"dx":0.0017,"nx":28,"ny":28,"refTime":"2024-06-25T21:00:00:Z","depth":0,"parameterNumber":2,"parameterNumberName":"U-component_of_WINDS"},"data":[0,0,0,0,0,0,0,0,0,0,0,0,0,0,0,0,0,0,0,0,0,0,0,0,0,0,0,0,0,0,0,0,0,0,0,0,0,0,0,0,0,0,0,0,0,0,0,0,0,0,0,0,0,0,0,0,0,0,3.8241,3.8242,0,3.8372,3.8374,3.8375,3.8361,3.8359,3.8357,3.8355,3.8496,3.8502,3.8508,0,0,0,0,0,0,0,0,0,0,0,0,0,3.7983,3.7988,3.8241,3.8242,3.8244,3.8372,3.8374,3.8376,3.8362,3.8359,3.8357,3.8354,3.8495,3.8501,3.8508,0,0,0,0,0,0,0,0,0,0,0,0,0,3.8103,3.7989,3.824,3.8252,3.8254,3.8372,3.8374,3.8376,3.8362,3.8359,3.8356,3.8353,3.8492,3.8501,3.8509,3.8625,0,0,3.8535,3.8539,0,0,0,0,0,0,0,0,3.8096,3.8112,3.8249,3.8251,3.8254,3.8347,3.8335,3.846,3.8363,3.8322,3.8355,3.8351,3.845,3.8462,3.8493,3.8632,3.8638,3.8536,3.8541,3.8545,3.8547,0,0,0,0,0,0,0,3.8088,3.8107,3.8293,3.8251,3.8254,3.8253,3.8266,3.8359,3.8402,3.8325,3.8324,3.834,3.8451,3.8485,3.8497,3.864,3.8536,3.8544,3.8549,3.8552,3.8882,3.8885,0,0,0,0,0,0,3.8076,3.81,3.8289,3.8297,3.8166,3.826,3.8275,3.8321,3.8401,3.841,3.8342,3.8338,3.8472,3.8487,3.8502,3.8644,3.8545,3.8553,3.8558,3.8878,3.8882,3.8886,0,0,0,0,0,0,3.807,3.8093,3.8283,3.8198,3.8222,3.8268,3.8319,3.8325,3.8359,3.8414,3.8422,3.8369,3.847,3.849,3.8594,3.8649,3.8557,3.8565,3.8874,3.8879,3.8884,3.893,0,0,0,0,0,0,3.8063,3.8091,3.8134,3.8199,3.8227,3.8373,3.8322,3.833,3.8373,3.837,3.8441,3.845,3.8469,3.8582,3.8603,3.8659,3.8571,3.8869,3.8876,3.8883,3.8924,3.8936,3.8947,0,0,0,0,0,3.8054,3.8143,3.8136,3.8159,3.8281,3.8376,3.8392,3.841,3.8378,3.8423,3.8458,3.8448,3.8639,3.8593,3.8616,3.8676,3.8866,3.8874,3.8882,3.8919,3.8934,3.8946,0,0,0,0,0,0,3.8085,3.8152,3.8145,3.8257,3.8311,3.8373,3.843,3.8425,3.8491,3.8485,3.8506,3.8523,3.8629,3.8663,3.861,3.8793,3.8748,3.8762,3.8768,3.8783,3.8794,3.8785,3.8578,0,0,0,0,0,3.8105,3.8173,3.8228,3.8322,3.8349,3.8385,3.8427,3.8436,3.8493,3.8516,3.8559,3.8616,3.8689,3.8737,3.8807,3.8927,3.8944,3.898,3.8991,3.9001,3.9013,3.9081,3.9098,3.8913,3.8913,3.8913,0,0,3.8147,3.8192,3.8234,3.833,3.8372,3.8445,3.8404,3.8483,3.8538,3.8529,3.8631,3.8664,3.8729,3.8843,3.8895,3.8874,3.9067,3.9011,3.9018,3.9026,3.9091,3.9109,3.9124,3.8918,3.8917,3.8917,0,0,3.8262,3.8301,3.8384,3.8427,3.8491,3.8514,3.8534,3.8597,3.8618,3.8719,3.8714,3.8781,3.8906,3.8953,3.8994,3.9125,3.912,3.9147,3.9209,3.9275,3.9289,3.9302,3.9352,3.9369,3.9158,3.9159,3.9159,0,3.8307,3.8415,3.8428,3.8508,3.8551,3.8543,3.8629,3.867,3.8755,3.8786,3.876,3.8917,3.896,3.9086,3.9118,3.915,3.9175,3.9141,3.9285,3.9299,3.9311,3.9359,3.9377,3.9162,3.9161,3.9161,3.9161,0,3.8468,3.8543,3.8603,3.8683,3.8732,3.8815,3.8843,3.8891,3.8896,3.8922,3.9027,3.9078,3.9159,3.9189,3.9195,3.9316,3.9301,3.928,3.9236,3.9332,3.9377,3.9395,3.9166,3.9165,3.9164,3.9163,0,0,3.861,3.8694,3.8716,3.8753,3.8822,3.8881,3.8963,3.904,3.9083,3.9141,3.9213,3.9318,3.9299,3.9345,3.9356,3.9413,3.9517,3.9386,3.9388,3.9411,3.9656,3.9673,3.9694,3.9512,3.9515,3.9518,3.9651,0,3.8734,3.8878,3.8892,3.9022,3.9092,3.9085,3.9157,3.9208,3.9235,3.93,3.933,3.9405,3.9373,3.9401,3.9457,3.9492,3.9567,3.9482,3.9582,3.9585,3.9569,3.9717,3.9736,3.9859,3.9669,3.9672,3.9674,0,3.8898,3.8959,3.9095,3.9155,3.9185,3.9249,3.9321,3.9383,3.9441,3.9457,3.9507,3.951,3.9597,3.9547,3.9669,3.9611,3.9652,3.9676,3.9681,3.9694,3.9638,3.9737,3.9899,3.9918,3.9701,3.9699,3.9697,0,3.8991,3.9107,3.9204,3.9235,3.9306,3.9352,3.9384,3.9439,3.9484,3.9547,3.9578,3.9651,3.9692,3.9749,3.9773,3.9734,3.9895,3.9846,3.9912,3.9912,3.995,3.9948,4.0124,3.9971,3.997,3.997,3.997,0,3.913,3.9215,3.9247,3.9307,3.9402,3.9417,3.9511,3.9542,3.959,3.9658,3.9655,3.9719,3.9744,3.9813,3.9832,3.9931,3.9949,3.9966,3.9971,3.9968,3.9967,3.9998,3.9991,3.9975,3.9974,3.9973,3.9972,0,3.9252,3.9276,3.9382,3.9439,3.9456,3.9523,3.9574,3.9633,3.9657,3.9743,3.9764,3.9803,3.9883,3.9911,4.0009,4.0022,4.0138,4.0134,4.0118,4.012,4.0186,4.0181,4.0392,4.0421,4.0246,4.0247,4.0249,0,3.9341,3.9405,3.9469,3.9513,3.9546,3.9617,3.9662,3.968,3.9728,3.9799,3.985,3.9929,3.9994,4.0123,4.0162,4.0237,4.0237,4.0305,4.0248,4.0244,4.0241,4.0238,4.0246,4.0317,4.0319,4.032,4.0321,0,3.9497,3.9505,3.957,3.9639,3.9693,3.9749,3.9804,3.984,3.9866,3.9921,4.0001,4.0051,4.015,4.023,4.0306,4.0341,4.0338,4.0338,4.0358,4.0358,4.0347,4.0357,4.0151,4.0334,4.0333,4.0332,4.0331,4.0331,3.9608,3.9665,3.9718,3.9791,3.9833,3.9883,3.9942,3.9972,4.0039,4.012,4.0126,4.0214,4.0271,4.0373,4.0412,4.0482,4.0464,4.0492,4.05,4.0507,4.0514,4.0333,4.0496,4.0496,4.0495,4.0495,4.0495,0,3.9766,3.9799,3.9865,3.994,3.9998,3.9984,4.0043,4.0094,4.017,4.0222,4.0285,4.0379,4.0455,4.0499,4.0576,4.0625,4.0625,4.0645,4.0643,4.0652,4.0525,4.0501,4.0643,4.0643,4.0643,4.0643,4.0643,4.0643,3.9856,3.9953,3.9967,4.0085,4.0118,4.0203,4.0238,4.0285,4.0327,4.0431,4.0494,4.052,4.057,4.0651,4.0721,4.0732,4.0763,4.0785,4.0795,4.0676,4.0661,4.0646,4.0624,4.0791,4.0791,4.0917,4.0918,4.0919]},{"header":{"parameterUnit":"m.s-1","parameterCategory":1,"la1":30.2991,"la2":30.254,"lo1":-89.0895,"lo2":-89.0444,"dy":0.0017,"dx":0.0017,"nx":28,"ny":28,"refTime":"2024-06-25T21:00:00:Z","depth":0,"parameterNumber":3,"parameterNumberName":"V-component_of_WINDS"},"data":[0,0,0,0,0,0,0,0,0,0,0,0,0,0,0,0,0,0,0,0,0,0,0,0,0,0,0,0,0,0,0,0,0,0,0,0,0,0,0,0,0,0,0,0,0,0,0,0,0,0,0,0,0,0,0,0,0,0,0.8286,0.8288,0,0.8407,0.8409,0.841,0.8472,0.8472,0.8472,0.8472,0.8598,0.8601,0.8604,0,0,0,0,0,0,0,0,0,0,0,0,0,0.8109,0.8112,0.8286,0.8288,0.8289,0.8407,0.8409,0.841,0.8472,0.8472,0.8472,0.8472,0.8596,0.86,0.8604,0,0,0,0,0,0,0,0,0,0,0,0,0,0.8204,0.8113,0.8286,0.8334,0.834,0.8407,0.8409,0.8411,0.8472,0.8472,0.8472,0.8472,0.8595,0.86,0.8605,0.8634,0,0,0.862,0.8622,0,0,0,0,0,0,0,0,0.8198,0.821,0.8326,0.8331,0.8337,0.8425,0.8392,0.8485,0.8472,0.8422,0.8472,0.8472,0.854,0.8549,0.8572,0.8639,0.8645,0.862,0.8623,0.8625,0.8627,0,0,0,0,0,0,0,0.8192,0.8205,0.8334,0.8327,0.8334,0.835,0.8363,0.841,0.8479,0.8426,0.8431,0.8444,0.8543,0.8567,0.8575,0.8647,0.862,0.8625,0.8628,0.863,0.8742,0.8742,0,0,0,0,0,0,0.8177,0.8199,0.833,0.8338,0.8267,0.8353,0.8368,0.8396,0.8479,0.8491,0.8444,0.8447,0.8559,0.857,0.858,0.8618,0.8625,0.863,0.8633,0.8742,0.8742,0.8742,0,0,0,0,0,0,0.8173,0.8188,0.8326,0.827,0.8289,0.8356,0.8387,0.8399,0.8423,0.8492,0.8505,0.8456,0.8559,0.8573,0.8619,0.8623,0.8632,0.8637,0.8742,0.8742,0.8742,0.8695,0,0,0,0,0,0,0.8168,0.8187,0.8198,0.827,0.8291,0.8363,0.8388,0.8401,0.8431,0.8435,0.8507,0.8518,0.856,0.8612,0.8624,0.863,0.8641,0.8742,0.8742,0.8742,0.8696,0.8693,0.8691,0,0,0,0,0,0.8161,0.8181,0.8199,0.8214,0.8307,0.8363,0.8375,0.8422,0.8431,0.8443,0.8487,0.8516,0.8621,0.8616,0.863,0.8638,0.8742,0.8742,0.8742,0.8698,0.8694,0.8691,0,0,0,0,0,0,0.811,0.8191,0.8212,0.8255,0.8301,0.8373,0.839,0.8417,0.8462,0.8465,0.8522,0.8538,0.8578,0.8613,0.8606,0.8669,0.8684,0.8687,0.8645,0.8642,0.8639,0.863,0.8645,0,0,0,0,0,0.8103,0.8141,0.821,0.8242,0.8264,0.8322,0.8349,0.8381,0.8431,0.8451,0.8499,0.8547,0.8591,0.8619,0.8663,0.8701,0.8717,0.8714,0.8711,0.8708,0.871,0.8732,0.8731,0.8742,0.8742,0.8742,0,0,0.809,0.814,0.816,0.8233,0.8272,0.831,0.8339,0.8378,0.8406,0.8458,0.8504,0.854,0.8597,0.8639,0.866,0.867,0.871,0.8708,0.8705,0.8709,0.8732,0.8731,0.8729,0.8742,0.8742,0.8742,0,0,0.8086,0.8127,0.8158,0.8196,0.8255,0.8294,0.83,0.8368,0.8393,0.844,0.8479,0.8513,0.8588,0.8627,0.8656,0.8664,0.8691,0.8676,0.8662,0.8682,0.8681,0.8681,0.8683,0.8683,0.8678,0.8678,0.8678,0,0.8063,0.8121,0.817,0.8206,0.8236,0.8283,0.8313,0.8348,0.8419,0.8439,0.8448,0.854,0.8583,0.8634,0.8635,0.8658,0.8667,0.8669,0.8677,0.8677,0.8678,0.868,0.8681,0.8676,0.8676,0.8676,0.8676,0,0.809,0.8129,0.8146,0.8212,0.8244,0.8277,0.833,0.8357,0.8385,0.8423,0.8469,0.8521,0.8575,0.859,0.8619,0.8644,0.8648,0.8666,0.8682,0.8673,0.8677,0.8678,0.8673,0.8673,0.8674,0.8675,0,0,0.8059,0.8148,0.8154,0.8183,0.825,0.8282,0.8316,0.8369,0.839,0.8437,0.8467,0.8527,0.8544,0.8577,0.8611,0.8628,0.863,0.8645,0.8647,0.8639,0.866,0.8645,0.8646,0.8648,0.8648,0.8649,0.8655,0,0.8064,0.8128,0.8171,0.8218,0.8254,0.8298,0.8328,0.8372,0.8407,0.8443,0.8482,0.8524,0.8543,0.8563,0.8583,0.8625,0.8634,0.8625,0.8677,0.8678,0.8661,0.8648,0.8633,0.8636,0.8656,0.8657,0.8657,0,0.8079,0.8123,0.8173,0.8234,0.8251,0.8277,0.8327,0.8361,0.8412,0.8436,0.8471,0.8505,0.8543,0.8554,0.8607,0.86,0.8623,0.8647,0.8648,0.8655,0.8667,0.8654,0.8639,0.8639,0.8659,0.8659,0.8659,0,0.8051,0.8122,0.816,0.8184,0.8257,0.8274,0.8305,0.8356,0.8383,0.8427,0.8446,0.8494,0.852,0.8556,0.8601,0.8606,0.8649,0.8665,0.867,0.8669,0.8678,0.8676,0.8666,0.8692,0.8692,0.8692,0.8692,0,0.8052,0.8081,0.8148,0.8172,0.8205,0.8254,0.8285,0.832,0.8364,0.8395,0.8436,0.8464,0.8522,0.8557,0.8593,0.863,0.8642,0.8662,0.8671,0.8659,0.8656,0.8675,0.8676,0.8693,0.8692,0.8692,0.8692,0,0.8027,0.8073,0.8118,0.8182,0.8198,0.822,0.8275,0.8299,0.8335,0.8374,0.8386,0.8443,0.8486,0.8534,0.8594,0.8618,0.8653,0.8666,0.8636,0.8641,0.8643,0.8642,0.8644,0.8646,0.8671,0.8671,0.8671,0,0.8025,0.8048,0.8113,0.8136,0.8166,0.8203,0.8231,0.8279,0.8307,0.8364,0.8381,0.8427,0.8467,0.8534,0.8581,0.8626,0.8641,0.8638,0.8648,0.8634,0.864,0.8638,0.864,0.8636,0.8635,0.8635,0.8634,0,0.8017,0.8037,0.8076,0.8121,0.8153,0.8192,0.8232,0.8249,0.8305,0.8334,0.8378,0.8408,0.8468,0.8513,0.8563,0.8595,0.8624,0.8631,0.8634,0.8622,0.8602,0.8612,0.8628,0.8631,0.8631,0.8631,0.8632,0.8632,0.8003,0.8024,0.8073,0.8114,0.8149,0.8185,0.821,0.8248,0.8286,0.8337,0.8364,0.8407,0.8455,0.8526,0.8556,0.8591,0.86,0.8606,0.8607,0.8607,0.8603,0.8596,0.86,0.86,0.8601,0.8601,0.8601,0,0.7996,0.8029,0.8066,0.812,0.8151,0.8174,0.8219,0.8244,0.8281,0.8323,0.836,0.8409,0.8452,0.8502,0.8547,0.8565,0.8579,0.8576,0.8575,0.8582,0.8593,0.8585,0.8563,0.8563,0.8563,0.8563,0.8563,0.8563,0.7996,0.8033,0.8059,0.8113,0.8146,0.8188,0.8212,0.8245,0.8278,0.8331,0.8366,0.8397,0.8442,0.8491,0.8531,0.8544,0.8559,0.8551,0.8568,0.8578,0.8581,0.8584,0.8577,0.8554,0.8554,0.8555,0.8555,0.8555]}]]